Temperature
18 18 18 18 17 17 17 17 17 17 17 17 17 17 17 17 17 17 17 16 16 16 16 16 16 16 16 16 16 15 15 15 15 15 15 15 15 15
18 17 17 17 17 17 17 17 17 17 17 17 17 17 17 17 16 16 16 16 16 16 16 16 16 16 15 15 15 15 15 15 15 15 15 15 15 15
17 17 18 18 17 17 17 17 17 17 17 17 17 17 17 17 16 16 16 16 16 16 16 15 15 15 15 15 15 15 15 15 15 15 15 15 14 14
17 17 17 17 17 17 17 17 17 17 17 17 17 17 17 17 16 16 16 15 15 15 15 15 15 15 15 15 15 15 15 14 14 14 14 14 14 14
17 17 17 17 17 17 17 17 17 17 17 16 17 17 17 16 16 16 15 15 15 15 15 15 15 15 15 15 15 14 14 14 14 14 14 14 14 14
17 17 17 17 17 17 17 17 17 17 16 16 16 16 16 16 16 15 15 15 15 15 15 14 14 14 14 14 14 14 14 14 14 14 13 13 13 13
17 17 17 17 17 17 17 17 17 16 16 16 16 16 16 16 16 16 15 15 15 15 15 14 14 14 14 14 14 14 14 14 13 13 13 13 13 13
17 17 17 17 17 17 16 16 16 16 16 16 16 16 16 16 16 15 15 15 15 15 14 14 14 14 14 14 14 14 14 13 13 13 13 13 12 12
17 17 17 17 16 16 16 16 16 16 16 16 16 16 16 16 15 15 15 15 15 15 14 14 14 14 14 14 14 13 13 13 13 13 12 12 12 12
16 16 16 16 16 16 16 16 16 16 16 16 16 16 15 15 15 15 15 15 14 14 14 14 14 14 14 14 13 13 13 13 13 12 12 12 12 12
16 16 16 16 16 16 16 16 16 16 15 15 15 15 15 15 15 14 14 14 14 14 14 14 14 14 13 14 13 13 13 13 12 12 12 12 12 11
16 16 16 16 16 16 15 15 15 15 15 15 15 15 15 15 14 14 14 14 14 14 14 13 13 13 13 13 13 13 13 12 12 12 12 12 11 11
16 16 15 15 15 15 15 15 15 15 15 15 15 15 14 14 14 14 14 14 14 14 14 13 13 13 13 13 13 13 12 12 12 12 12 11 11 11
15 15 15 15 15 15 15 15 15 14 14 14 14 14 14 14 14 14 14 14 14 14 14 13 13 13 13 12 12 12 12 12 12 12 11 11 11 11
15 15 15 15 14 14 14 14 14 14 14 14 14 14 14 14 14 14 13 13 13 13 13 13 13 13 12 12 12 12 12 12 11 11 11 11 11 11
14 14 14 14 14 14 14 14 13 13 13 13 13 13 13 13 13 13 13 13 13 13 13 13 13 12 12 12 12 12 12 12 11 11 11 11 11 11
14 14 14 13 13 13 13 13 13 13 13 13 12 12 13 13 13 13 12 12 12 12 12 12 12 12 12 12 12 12 12 12 11 11 11 10 10 10
13 13 13 13 13 13 13 13 13 12 12 12 12 12 12 12 12 12 12 12 12 12 12 12 12 12 11 11 11 11 11 11 11 11 11 10 10 10
13 13 12 12 12 12 12 12 12 12 12 12 12 12 12 12 12 12 12 12 12 12 12 12 12 11 11 11 11 11 11 11 11 10 10 10 10 10
12 12 12 12 12 12 12 12 12 12 11 11 11 11 11 11 11 11 11 11 11 11 11 11 11 11 11 11 11 11 11 10 10 10 10 10 10 10
12 12 11 11 11 11 11 11 11 11 11 11 11 11 10 10 10 11 11 11 11 11 11 11 11 11 10 10 10 10 10 10 10 10 10 10 9 9
11 11 11 11 11 11 10 11 10 11 10 10 10 10 10 10 10 10 10 10 10 10 10 10 10 10 10 10 10 10 9 9 9 9 9 9 9 9
11 11 11 10 10 10 10 10 10 10 10 10 10 10 10 9 10 10 10 10 10 10 10 10 10 10 9 9 9 9 9 9 9 9 9 9 9 9
Wind_Speed
4 4 4 3 3 3 3 4 3 2 3 3 2 1 3 4 5 6 6 7 8 8 8 7 7 6 6 5 4 4 3 2 2 2 2 2 2 3
3 3 3 3 3 2 3 3 3 4 4 3 3 2 2 3 5 5 6 7 8 8 7 7 8 7 6 5 5 4 4 3 3 2 2 1 1 1
4 3 4 3 3 2 2 3 3 3 4 3 2 1 2 3 3 4 5 6 6 8 8 8 8 8 7 6 5 5 4 4 4 3 3 3 2 2
5 4 4 3 4 3 3 3 3 3 3 4 2 2 3 4 4 4 4 5 6 8 9 9 9 8 8 7 7 6 5 5 5 4 4 3 3 2
5 5 5 4 5 4 4 4 3 3 3 3 3 2 2 2 2 2 3 3 5 7 8 9 9 9 9 9 8 7 6 6 6 5 5 4 3 3
5 6 6 6 6 5 5 4 3 3 2 2 2 2 2 2 2 2 2 2 3 4 6 7 9 9 10 10 9 9 8 7 7 6 6 5 4 4
5 5 6 7 8 6 5 4 4 3 3 3 3 2 2 2 3 3 4 3 3 3 2 3 4 5 7 9 10 10 10 10 9 8 7 6 6 5
5 5 6 6 8 8 8 8 7 6 6 5 4 4 5 4 3 3 3 2 3 3 4 3 3 4 6 8 11 12 12 11 10 9 8 8 7 6
6 5 5 5 5 4 5 6 7 9 9 7 7 7 6 6 5 4 4 5 5 4 4 4 3 5 6 9 13 14 13 13 12 11 10 9 8 7
6 6 6 5 4 4 4 3 4 5 7 7 7 8 7 6 7 6 6 4 2 2 4 4 4 4 4 7 12 14 15 14 13 12 11 10 9 8
4 4 4 4 5 5 4 4 4 4 5 7 8 7 8 7 6 4 3 3 3 3 3 3 3 2 2 4 7 13 14 14 13 13 12 12 10 8
3 2 3 4 4 5 5 5 5 5 3 3 3 4 4 5 7 7 7 6 3 3 4 4 3 2 2 2 3 6 9 11 13 13 13 13 11 8
3 3 3 4 5 6 6 6 7 5 3 3 3 3 3 3 5 5 6 7 6 5 5 5 4 3 3 2 2 3 5 5 7 8 11 13 13 11
4 4 4 5 6 6 5 6 6 4 2 2 3 4 4 5 5 6 7 7 7 7 7 7 5 6 4 3 3 2 3 5 5 4 6 9 11 12
4 5 4 5 5 4 5 5 4 3 3 3 4 5 5 5 4 3 4 4 4 6 7 7 5 5 5 5 4 3 2 3 5 4 4 5 6 6
3 3 3 4 4 4 3 3 3 4 4 5 4 4 3 3 3 3 3 3 2 3 4 6 7 7 5 5 5 4 4 4 5 5 5 4 5 8
2 1 0 1 2 2 2 3 2 2 3 4 4 3 3 3 3 2 2 2 3 4 3 2 3 4 6 6 5 5 5 4 5 6 5 4 4 5
4 2 3 3 4 4 4 3 3 3 3 3 3 4 4 4 4 2 2 3 4 4 4 3 2 0 1 2 6 6 5 4 4 5 5 5 5 4
4 4 4 4 4 4 4 4 4 4 3 3 3 3 3 3 3 3 3 3 4 4 3 3 4 4 4 4 3 5 6 5 4 4 4 4 5 5
4 4 4 4 4 4 4 4 3 3 2 3 3 3 3 3 3 3 3 3 3 3 2 2 4 5 6 5 3 2 6 6 5 5 4 3 2 1
4 4 4 4 4 4 4 3 3 3 3 3 3 4 3 3 3 4 3 4 3 2 3 4 4 4 2 2 1 1 1 4 6 6 5 4 2 2
4 4 4 4 3 3 3 3 3 3 3 3 3 3 3 3 3 3 3 3 3 3 3 2 1 2 3 3 3 2 2 1 1 3 6 7 6 6
5 4 4 4 4 4 4 4 4 4 3 3 3 3 3 3 2 2 2 2 2 2 2 1 1 1 2 4 3 3 3 2 2 1 1 2 5 6
Wind_Direction
226 223 225 235 224 215 199 182 182 230 258 247 236 218 171 175 189 181 177 183 187 190 191 191 189 185 183 184 182 181 187 192 202 209 221 234 245 254
224 222 231 238 235 222 208 201 187 192 233 242 230 222 189 183 195 185 189 193 195 194 195 190 185 184 184 183 180 182 186 189 194 197 195 200 223 243
230 219 232 237 236 230 220 210 199 184 224 259 240 219 190 189 178 192 194 194 200 203 202 196 193 192 191 189 191 195 196 197 196 193 188 176 162 151
227 225 237 242 238 227 216 218 213 200 198 239 246 224 224 203 191 195 198 208 207 212 207 202 203 202 199 198 199 201 203 206 205 196 183 169 161 155
217 223 235 230 237 234 223 223 222 217 196 212 236 231 237 206 187 212 211 214 216 214 209 209 209 207 205 203 203 205 208 213 211 203 194 182 173 168
218 221 225 221 226 226 228 226 218 208 203 212 232 233 228 215 174 199 225 228 226 212 211 212 215 216 212 209 209 211 212 212 210 207 201 193 186 182
227 227 229 226 226 224 227 220 211 208 204 210 228 228 226 200 209 204 216 223 236 214 206 221 215 216 214 217 217 217 216 213 211 208 203 199 196 193
230 239 241 234 234 232 232 219 207 205 210 211 222 227 233 226 208 201 197 199 236 213 187 226 201 221 226 219 219 217 217 216 212 208 205 201 200 199
225 230 243 245 236 227 232 227 225 220 210 204 216 226 224 219 201 207 208 209 226 207 180 225 214 228 233 228 222 219 217 216 214 211 208 207 206 206
230 224 227 242 239 220 211 224 239 238 224 214 218 225 225 215 204 206 212 216 242 210 174 205 216 226 233 227 226 220 217 215 213 211 211 210 211 213
240 230 222 226 240 210 196 219 248 266 256 233 230 232 229 221 204 183 186 187 230 232 196 185 203 212 229 239 230 218 214 212 212 212 212 211 210 208
245 241 227 226 220 196 199 208 231 252 261 268 259 261 246 234 217 202 197 201 205 223 206 183 188 167 226 244 220 209 211 215 215 216 215 212 205 197
218 233 238 229 220 211 207 216 230 237 241 242 251 259 258 242 230 221 208 202 207 225 204 180 187 182 189 220 237 209 198 207 212 218 215 210 203 194
215 221 229 227 231 225 224 237 239 232 233 242 245 244 239 238 237 229 224 222 221 219 201 184 191 193 187 201 228 214 204 204 200 209 209 203 203 205
224 221 225 230 236 236 238 243 239 224 222 232 242 245 240 238 240 241 237 235 240 237 214 204 196 192 189 202 202 195 202 215 203 200 198 194 194 189
235 240 235 238 242 245 252 245 229 223 220 231 242 249 250 242 238 233 235 231 238 263 243 217 203 190 202 205 193 200 195 194 196 197 192 200 202 203
195 189 276 266 260 262 258 252 240 230 229 237 240 246 249 249 252 242 221 221 225 240 254 250 218 206 203 193 198 208 200 202 194 186 181 196 214 213
157 194 224 235 239 245 245 249 242 233 232 232 238 242 245 246 252 252 222 214 230 237 233 227 205 163 35 272 209 202 204 203 195 184 179 187 213 221
175 213 225 235 241 238 235 234 239 238 226 226 236 246 255 253 250 250 238 227 231 239 239 213 191 185 207 240 254 205 196 195 181 186 193 195 208 216
203 219 232 228 228 231 234 236 238 232 223 232 241 243 243 242 247 247 239 237 236 237 237 223 205 202 209 216 223 237 197 184 183 191 200 201 212 211
215 218 224 228 226 227 229 230 229 229 228 227 235 234 235 238 241 240 233 234 229 227 232 240 238 213 180 132 152 263 249 204 193 191 184 177 188 192
221 225 230 227 221 219 219 222 228 233 236 238 239 234 229 227 234 236 227 221 224 225 232 245 234 152 152 175 200 221 248 259 234 192 188 183 180 193
226 227 229 224 219 213 211 219 223 226 228 234 237 232 221 221 221 219 223 221 222 221 216 223 215 171 176 181 190 210 218 211 187 153 245 241 206 207
Height
1532 1532 1532 1533 1534 1534 1534 1534 1534 1532 1531 1531 1532 1532 1532 1532 1532 1531 1531 1531 1530 1530 1530 1529 1529 1528 1528 1528 1527 1527 1527 1527 1526 1526 1526 1526 1526 1525
1529 1529 1529 1529 1530 1530 1531 1531 1531 1530 1529 1528 1529 1529 1529 1529 1529 1529 1529 1529 1528 1528 1528 1527 1526 1526 1525 1525 1525 1525 1524 1524 1524 1523 1523 1523 1523 1523
1525 1525 1525 1526 1526 1526 1527 1527 1527 1527 1526 1525 1526 1526 1526 1526 1526 1526 1526 1526 1526 1526 1525 1524 1524 1524 1523 1523 1522 1522 1522 1522 1521 1521 1521 1520 1520 1520
1521 1522 1522 1522 1522 1522 1522 1523 1523 1523 1523 1522 1522 1523 1523 1523 1523 1523 1523 1523 1523 1523 1522 1522 1522 1521 1521 1521 1520 1520 1520 1519 1519 1519 1519 1518 1518 1518
1517 1518 1518 1518 1518 1518 1518 1518 1518 1519 1519 1519 1519 1519 1519 1519 1519 1519 1519 1519 1520 1520 1520 1519 1519 1519 1519 1518 1518 1518 1517 1517 1517 1517 1516 1516 1516 1516
1513 1514 1514 1514 1514 1514 1514 1514 1514 1514 1515 1515 1515 1515 1515 1515 1515 1515 1515 1515 1516 1516 1516 1516 1516 1516 1516 1516 1516 1515 1515 1515 1515 1514 1514 1514 1514 1514
1509 1509 1510 1510 1510 1510 1510 1510 1510 1510 1510 1510 1510 1510 1511 1511 1511 1511 1511 1512 1512 1512 1513 1513 1513 1513 1513 1513 1513 1512 1512 1512 1512 1512 1511 1511 1511 1511
1505 1505 1505 1506 1505 1506 1506 1506 1506 1506 1506 1506 1506 1506 1506 1507 1507 1508 1508 1508 1507 1508 1509 1509 1509 1509 1509 1509 1509 1509 1509 1509 1509 1509 1509 1509 1509 1509
1500 1501 1501 1501 1501 1501 1501 1501 1502 1502 1502 1502 1502 1502 1502 1503 1503 1503 1503 1503 1503 1504 1505 1504 1505 1505 1506 1506 1506 1506 1506 1506 1506 1506 1506 1506 1506 1506
1496 1496 1496 1496 1497 1497 1497 1497 1497 1497 1497 1497 1497 1497 1498 1498 1499 1499 1499 1500 1500 1500 1500 1500 1500 1501 1501 1502 1502 1502 1502 1502 1503 1503 1503 1503 1504 1504
1492 1492 1492 1492 1492 1493 1493 1492 1492 1492 1493 1493 1493 1493 1493 1494 1494 1494 1494 1494 1494 1494 1495 1496 1495 1496 1496 1497 1498 1498 1499 1499 1499 1500 1500 1500 1500 1501
1487 1487 1488 1488 1488 1488 1488 1488 1488 1488 1488 1487 1488 1488 1488 1488 1489 1489 1489 1489 1488 1489 1490 1491 1491 1491 1491 1492 1493 1494 1495 1495 1496 1496 1496 1497 1497 1498
1482 1483 1483 1483 1484 1484 1484 1484 1483 1484 1483 1483 1482 1483 1483 1483 1483 1483 1484 1484 1484 1483 1485 1486 1486 1486 1487 1487 1487 1489 1490 1491 1492 1492 1493 1493 1494 1494
1477 1478 1478 1479 1479 1479 1479 1479 1479 1479 1479 1478 1478 1477 1477 1477 1477 1478 1478 1478 1479 1479 1480 1480 1480 1481 1482 1482 1483 1484 1485 1486 1488 1488 1489 1489 1490 1491
1473 1473 1474 1474 1474 1474 1474 1474 1474 1474 1473 1473 1473 1473 1473 1473 1473 1473 1473 1473 1473 1474 1474 1475 1475 1476 1477 1477 1477 1479 1480 1481 1483 1484 1485 1486 1486 1486
1469 1468 1469 1469 1469 1469 1469 1469 1469 1469 1468 1468 1468 1468 1469 1468 1468 1468 1468 1468 1468 1468 1469 1470 1470 1471 1472 1472 1473 1474 1475 1476 1478 1479 1481 1482 1482 1483
1464 1464 1464 1464 1464 1463 1463 1463 1463 1464 1464 1464 1464 1464 1464 1464 1464 1464 1464 1464 1464 1463 1464 1465 1466 1466 1467 1468 1468 1469 1470 1471 1473 1474 1476 1477 1478 1479
1459 1459 1458 1459 1459 1459 1458 1458 1458 1458 1459 1459 1459 1459 1459 1459 1459 1459 1459 1459 1459 1459 1460 1461 1461 1462 1462 1462 1464 1464 1465 1467 1468 1470 1471 1472 1473 1474
1455 1454 1453 1453 1454 1454 1454 1453 1453 1454 1454 1454 1454 1454 1454 1454 1454 1454 1454 1454 1454 1455 1455 1456 1457 1457 1457 1457 1458 1460 1461 1462 1464 1465 1467 1468 1468 1469
1449 1449 1448 1448 1449 1449 1449 1449 1449 1449 1449 1449 1449 1449 1449 1450 1450 1449 1450 1450 1450 1450 1451 1451 1452 1452 1453 1453 1454 1456 1458 1458 1459 1460 1462 1463 1464 1466
1444 1444 1444 1444 1444 1444 1444 1444 1444 1444 1444 1444 1444 1445 1445 1445 1445 1445 1445 1445 1446 1446 1446 1447 1448 1449 1450 1451 1451 1451 1453 1455 1455 1456 1457 1458 1459 1460
1439 1439 1439 1439 1439 1439 1439 1439 1439 1439 1439 1440 1440 1440 1440 1440 1440 1440 1441 1441 1441 1442 1442 1443 1444 1445 1445 1446 1446 1447 1449 1451 1452 1453 1454 1455 1455 1455
1433 1433 1433 1433 1434 1434 1434 1435 1435 1435 1435 1435 1435 1435 1436 1436 1436 1436 1437 1437 1438 1438 1438 1439 1440 1440 1441 1442 1443 1444 1445 1446 1447 1448 1450 1451 1452 1453